TIANLIAN 2-01

Last updated on Sun Jun 21 2026 00:03:08 GMT+0000 (Coordinated Universal Time)

1 44076U 19017A 26171.40727872 -.00000111 00000+0 00000+0 0 9995 2 44076 0.5494 83.1269 0000872 32.2467 16.8699 1.00271234 26686
UTC large
Height (km)
Speed (km/s)
/
Latitude / Longitude
Inclination (degrees)
Orbital Period (minutes)
Azimuth
Elevation
Range (km)
Doppler Factor

Next 0 passes for location: London (51.5072 / 0.1276)

No passes found over London.
TIANLIAN 2-01